sat.trackr.live / text

‹ back to catalog

MENUT

NORAD 55010 · 2023-001B

PAYLOAD ACTIVE UNKNOWN

§ Identity

Operator
Country
SPN
Launch date
2023-01-03
Launch site
AFETR
Launch vehicle
Mass (kg)
RCS (m²)

External: N2YO · Heavens-Above · Gunter

§ Orbital elements

Epoch: 2026-09-21T22:45:55.755072Z

Period
91.22 min
Inclination
97.2989°
Eccentricity
0.0002797
Mean motion
15.78653512 rev/d
Perigee alt
332.4 km
Apogee alt
336.1 km
Semi-major
6,712.4 km
B*
7.4472e-4
RAAN
336.9192°
Arg perigee
152.0119°
Mean anomaly
208.1299°
Rev number
20,756

§ Raw data

MENUT1 55010U 23001B   26264.94856198  .00131225  00000+0  74472-3 0  99972 55010  97.2989 336.9192 0002797 152.0119 208.1299 15.78653512207568

JSON: /api/v1/satellites/55010 · /tle

For live sub-satellite position, see the globe view (requires WebGL).

§ Visibility from observer

Set your observer location to see the next 7 days of passes ≥ 10°. The values pass through the URL so the page stays shareable.

No JS? Fill the form by hand. The geolocation button needs JavaScript.

§ Radio — SatNOGS DB

ModeDescriptionDownlinkUplink
QPSK S-band TT&C transceiver (operator-provided) 2.245 GHz 2.057 GHz

1 transmitter · refreshed weekly from db.satnogs.org